{"data":{"norad_id":56747,"epoch":"2026-05-25T04:15:17.193312Z","epoch_age_seconds":62926,"freshness":"FRESH","line1":"1 56747U 23072E   26145.17728233  .00024008  00000+0  47971-3 0  9998","line2":"2 56747  97.5086 353.5606 0005265  78.7294 281.4547 15.46798230166828","mean_motion":15.4679823,"eccentricity":0.0005265,"inclination_deg":97.5086,"raan_deg":353.5606,"arg_perigee_deg":78.7294,"mean_anomaly_deg":281.4547,"bstar":0.00047971,"rev_number":16682,"period_min":93.095529337398,"perigee_km":422.51701820854,"apogee_km":429.68187918902,"semimajor_km":6804.2364486988,"source":"CELESTRAK","updated_at":"2026-05-25T13:37:59.661650Z"}}